DW9069 Weather Reports


Display with metric or nautical units.
time (UTC)temp
F
wind
direction
speed
MPH
gust
MPH
rain 1hr
in
rain 24hr
in
rain mn
in
humidity
%
barometer
mb
20210418174059 56 158 7.0 13.0 0.00 0.00 0.00 36 1022.7
20210418173623 56 212 8.0 15.0 0.00 0.00 0.00 40 1022.8
20210418173111 54 190 6.0 15.0 0.00 0.00 0.00 35 1022.8
20210418172925 54 240 10.0 15.0 0.00 0.00 0.00 36 1022.9
20210418172457 54 232 7.0 12.0 0.00 0.00 0.00 39 1023.0
20210418171559 54 198 7.0 12.0 0.00 0.00 0.00 36 1023.1
20210418171101 53 170 10.0 15.0 0.00 0.00 0.00 37 1023.3
20210418170535 53 225 7.0 12.0 0.00 0.00 0.00 41 1023.3
20210418170120 52 192 7.0 12.0 0.00 0.00 0.00 40 1023.3
20210418165746 52 238 9.0 13.0 0.00 0.00 0.00 39 1023.4
20210418165125 51 251 8.0 14.0 0.00 0.00 0.00 39 1023.5
20210418164543 51 214 8.0 14.0 0.00 0.00 0.00 41 1023.5
20210418164031 50 219 8.0 17.0 0.00 0.00 0.00 40 1023.6
20210418163547 50 217 11.0 17.0 0.00 0.00 0.00 40 1023.7
20210418163231 50 205 5.0 12.0 0.00 0.00 0.00 43 1023.7
20210418163021 49 169 8.0 14.0 0.00 0.00 0.00 40 1023.8
20210418162600 49 192 8.0 15.0 0.00 0.00 0.00 43 1023.8
20210418161617 49 238 10.0 15.0 0.00 0.00 0.00 41 1023.8
20210418161042 48 223 10.0 14.0 0.00 0.00 0.00 41 1023.9
20210418160539 48 234 11.0 16.0 0.00 0.00 0.00 44 1023.8
20210418160059 48 237 11.0 16.0 0.00 0.00 0.00 42 1023.9
20210418155815 47 228 11.0 15.0 0.00 0.00 0.00 43 1024.1
20210418155209 47 215 9.0 11.0 0.00 0.00 0.00 42 1024.2
20210418154529 47 170 5.0 10.0 0.00 0.00 0.00 45 1024.3
20210418154025 46 242 6.0 11.0 0.00 0.00 0.00 44 1024.3
20210418153517 46 212 7.0 11.0 0.00 0.00 0.00 44 1024.4
20210418153029 46 232 9.0 12.0 0.00 0.00 0.00 44 1024.5
20210418152708 46 235 6.0 12.0 0.00 0.00 0.00 46 1024.5
20210418152229 45 219 7.0 11.0 0.00 0.00 0.00 46 1024.6
20210418151025 45 209 8.0 11.0 0.00 0.00 0.00 46 1024.6
20210418150514 45 186 6.0 10.0 0.00 0.00 0.00 46 1024.6
20210418150037 44 216 5.0 9.0 0.00 0.00 0.00 46 1024.7
20210418145740 44 173 5.0 9.0 0.00 0.00 0.00 47 1024.6
20210418145127 43 193 3.0 10.0 0.00 0.00 0.00 50 1024.7
20210418144522 43 182 6.0 9.0 0.00 0.00 0.00 49 1024.7
20210418144028 42 188 4.0 9.0 0.00 0.00 0.00 51 1024.7
20210418143509 42 174 4.0 8.0 0.00 0.00 0.00 51 1024.7
20210418143026 41 178 2.0 5.0 0.00 0.00 0.00 56 1024.8
20210418142815 40 157 2.0 7.0 0.00 0.00 0.00 54 1024.9
20210418142244 40 171 1.0 5.0 0.00 0.00 0.00 56 1024.8
20210418141520 39 144 1.0 3.0 0.00 0.00 0.00 56 1024.8
20210418141023 38 144 1.0 4.0 0.00 0.00 0.00 57 1024.9
20210418140510 37 144 0.0 5.0 0.00 0.00 0.00 58 1024.8
20210418140058 37 144 3.0 5.0 0.00 0.00 0.00 59 1024.9
20210418135851 35 107 1.0 4.0 0.00 0.00 0.00 62 1024.9
20210418135221 34 98 0.0 3.0 0.00 0.00 0.00 65 1025.0
20210418134513 33 98 1.0 3.0 0.00 0.00 0.00 70 1024.9
20210418134023 32 98 0.0 3.0 0.00 0.00 0.00 71 1025.0
20210418133515 31 98 1.0 3.0 0.00 0.00 0.00 70 1025.0
20210418133023 30 98 1.0 4.0 0.00 0.00 0.00 71 1024.9
20210418132723 30 98 2.0 4.0 0.00 0.00 0.00 72 1024.9
20210418132238 29 98 2.0 3.0 0.00 0.00 0.00 70 1024.9
20210418132044 29 98 2.0 4.0 0.00 0.00 0.00 70 1024.9
20210418131727 29 98 2.0 4.0 0.00 0.00 0.00 71 1024.8
20210418131128 29 98 2.0 4.0 0.00 0.00 0.00 70 1024.8
20210418130624 30 117 2.0 3.0 0.00 0.00 0.00 69 1024.8
20210418130329 30 117 2.0 3.0 0.00 0.00 0.00 70 1024.9
20210418130108 29 117 2.0 3.0 0.00 0.00 0.00 70 1024.9
20210418125834 29 117 2.0 3.0 0.00 0.00 0.00 70 1024.8
20210418124820 29 117 1.0 3.0 0.00 0.00 0.00 68 1024.7
20210418124228 29 117 1.0 4.0 0.00 0.00 0.00 69 1024.7
20210418123936 29 117 1.0 4.0 0.00 0.00 0.00 70 1024.7
20210418123635 29 117 1.0 6.0 0.00 0.00 0.00 70 1024.8
20210418123215 29 117 1.0 6.0 0.00 0.00 0.00 70 1024.7
20210418122636 29 94 2.0 6.0 0.00 0.00 0.00 71 1024.6
20210418121702 28 94 3.0 6.0 0.00 0.00 0.00 71 1024.7
20210418121141 29 94 3.0 4.0 0.00 0.00 0.00 71 1024.5
20210418120653 29 93 2.0 3.0 0.00 0.00 0.00 70 1024.7
20210418120417 29 94 1.0 2.0 0.00 0.00 0.00 71 1024.6
20210418115945 29 93 0.0 3.0 0.00 0.00 0.00 71 1024.6
20210418115726 29 94 2.0 6.0 0.00 0.00 0.00 71 1024.6
20210418114931 28 93 3.0 6.0 0.00 0.00 0.00 71 1024.6
20210418114102 28 150 1.0 3.0 0.00 0.00 0.00 70 1024.6
20210418113554 29 150 2.0 5.0 0.00 0.00 0.00 69 1024.5
20210418113219 29 150 3.0 5.0 0.00 0.00 0.00 68 1024.6
20210418112945 29 164 2.0 4.0 0.00 0.00 0.00 69 1024.6
20210418112450 29 164 1.0 2.0 0.00 0.00 0.00 70 1024.7
20210418111652 29 164 0.0 2.0 0.00 0.00 0.00 70 1024.7
20210418111104 29 164 1.0 2.0 0.00 0.00 0.00 70 1024.7
20210418110553 29 164 0.0 1.0 0.00 0.00 0.00 72 1024.8
20210418110159 29 164 0.0 3.0 0.00 0.00 0.00 71 1024.8
20210418105936 29 164 1.0 3.0 0.00 0.00 0.00 70 1024.7
20210418105434 28 165 2.0 3.0 0.00 0.00 0.00 71 1024.6
20210418104627 29 165 1.0 3.0 0.00 0.00 0.00 68 1024.6
20210418104059 29 165 1.0 3.0 0.00 0.00 0.00 68 1024.6
20210418103625 29 165 1.0 3.0 0.00 0.00 0.00 68 1024.4
20210418103137 29 165 2.0 3.0 0.00 0.00 0.00 68 1024.4
20210418102907 29 165 2.0 5.0 0.00 0.00 0.00 69 1024.5
20210418102435 29 168 3.0 5.0 0.00 0.00 0.00 68 1024.4
20210418101626 29 173 2.0 3.0 0.00 0.00 0.00 67 1024.4
20210418101057 30 173 2.0 4.0 0.00 0.00 0.00 65 1024.4
20210418100545 31 173 2.0 4.0 0.00 0.00 0.00 64 1024.3
20210418100142 31 173 3.0 4.0 0.00 0.00 0.00 63 1024.4
20210418095935 32 177 2.0 3.0 0.00 0.00 0.00 61 1024.4
20210418095639 33 177 1.0 3.0 0.00 0.00 0.00 59 1024.3
20210418094547 33 177 0.0 3.0 0.00 0.00 0.00 59 1024.3
20210418094043 34 177 2.0 3.0 0.00 0.00 0.00 56 1024.3
20210418093540 35 177 2.0 4.0 0.00 0.00 0.00 56 1024.2
20210418093138 33 178 2.0 4.0 0.00 0.00 0.00 60 1024.2
20210418092747 31 178 2.0 3.0 0.00 0.00 0.00 63 1024.2
20210418092338 32 178 1.0 2.0 0.00 0.00 0.00 62 1024.2
20210418091736 34 178 0.0 0.0 0.00 0.00 0.00 59 1024.2
20210418091042 34 178 0.0 1.0 0.00 0.00 0.00 59 1024.2
20210418090546 34 178 0.0 2.0 0.00 0.00 0.00 58 1024.1
20210418090115 35 178 0.0 4.0 0.00 0.00 0.00 56 1024.1
20210418085906 36 178 3.0 4.0 0.00 0.00 0.00 54 1024.2
20210418085249 37 183 0.0 3.0 0.00 0.00 0.00 50 1024.2
20210418084620 38 183 1.0 2.0 0.00 0.00 0.00 49 1024.2
20210418084045 39 183 0.0 3.0 0.00 0.00 0.00 48 1024.2
20210418083527 39 183 1.0 4.0 0.00 0.00 0.00 48 1024.3
20210418083036 39 183 2.0 4.0 0.00 0.00 0.00 48 1024.1
20210418082758 39 183 2.0 4.0 0.00 0.00 0.00 48 1024.3
20210418082130 39 183 2.0 6.0 0.00 0.00 0.00 47 1024.3
20210418081551 39 183 2.0 6.0 0.00 0.00 0.00 47 1024.3
20210418081059 40 187 4.0 6.0 0.00 0.00 0.00 48 1024.4
20210418080529 40 175 4.0 6.0 0.00 0.00 0.00 47 1024.3
20210418080145 40 203 4.0 6.0 0.00 0.00 0.00 47 1024.3
20210418080052 40 179 3.0 8.0 0.00 0.00 0.00 47 1024.3
20210418075424 40 182 4.0 8.0 0.00 0.00 0.00 47 1024.3
20210418074553 40 175 5.0 9.0 0.00 0.00 0.00 46 1024.3
20210418074023 40 171 3.0 7.0 0.00 0.00 0.00 46 1024.3
20210418073523 40 164 3.0 7.0 0.00 0.00 0.00 46 1024.3
20210418073041 40 171 4.0 7.0 0.00 0.00 0.00 46 1024.3
20210418072719 40 155 3.0 7.0 0.00 0.00 0.00 46 1024.3
20210418072145 40 148 2.0 8.0 0.00 0.00 0.00 46 1024.3
20210418071546 41 144 4.0 7.0 0.00 0.00 0.00 45 1024.3
20210418071046 41 146 2.0 7.0 0.00 0.00 0.00 46 1024.5
20210418070518 41 159 4.0 7.0 0.00 0.00 0.00 45 1024.4
20210418070055 41 193 3.0 7.0 0.00 0.00 0.00 46 1024.5
20210418065752 41 176 2.0 6.0 0.00 0.00 0.00 46 1024.4
20210418065224 41 179 2.0 5.0 0.00 0.00 0.00 46 1024.4
20210418064527 41 178 2.0 5.0 0.00 0.00 0.00 46 1024.3
20210418064022 40 179 1.0 3.0 0.00 0.00 0.00 46 1024.4
20210418063512 41 179 1.0 4.0 0.00 0.00 0.00 47 1024.4
20210418063041 41 179 0.0 4.0 0.00 0.00 0.00 47 1024.4
20210418062742 41 179 2.0 4.0 0.00 0.00 0.00 46 1024.3
20210418062147 41 179 2.0 6.0 0.00 0.00 0.00 47 1024.2
20210418061523 41 184 3.0 6.0 0.00 0.00 0.00 47 1024.3
20210418061025 42 180 3.0 7.0 0.00 0.00 0.00 46 1024.2
20210418060511 42 196 4.0 7.0 0.00 0.00 0.00 46 1024.2
20210418060144 42 178 4.0 8.0 0.00 0.00 0.00 45 1024.2
20210418055913 42 175 4.0 8.0 0.00 0.00 0.00 46 1024.2
20210418055243 41 172 3.0 6.0 0.00 0.00 0.00 48 1024.2
20210418054538 41 182 3.0 5.0 0.00 0.00 0.00 49 1024.1
20210418054025 40 165 3.0 5.0 0.00 0.00 0.00 49 1024.1
20210418053515 41 164 2.0 6.0 0.00 0.00 0.00 49 1024.1
20210418053050 40 184 2.0 5.0 0.00 0.00 0.00 50 1024.0
20210418052832 39 204 2.0 5.0 0.00 0.00 0.00 53 1024.0
20210418052244 38 219 1.0 6.0 0.00 0.00 0.00 56 1023.9
20210418051516 39 219 3.0 6.0 0.00 0.00 0.00 55 1023.9
20210418051020 39 217 3.0 7.0 0.00 0.00 0.00 56 1023.9
20210418050514 38 202 4.0 7.0 0.00 0.00 0.00 56 1023.9
20210418050037 38 202 3.0 5.0 0.00 0.00 0.00 55 1023.9
20210418045818 39 202 3.0 5.0 0.00 0.00 0.00 55 1023.9
20210418045134 39 207 3.0 5.0 0.00 0.00 0.00 52 1023.9
20210418044512 40 178 3.0 4.0 0.00 0.00 0.00 50 1023.9
20210418044019 41 127 2.0 4.0 0.00 0.00 0.00 49 1023.8
20210418043519 39 105 1.0 3.0 0.00 0.00 0.00 51 1023.8
20210418043027 38 105 1.0 3.0 0.00 0.00 0.00 53 1023.8
20210418042842 38 105 1.0 3.0 0.00 0.00 0.00 54 1023.8
20210418042143 39 105 1.0 3.0 0.00 0.00 0.00 53 1023.7
20210418041513 38 105 1.0 3.0 0.00 0.00 0.00 55 1023.6
20210418041103 39 105 1.0 3.0 0.00 0.00 0.00 53 1023.6
20210418041021 39 105 2.0 3.0 0.00 0.00 0.00 52 1023.6
20210418040334 41 105 2.0 3.0 0.00 0.00 0.00 46 1023.6
20210418035832 41 105 1.0 3.0 0.00 0.00 0.00 47 1023.6
20210418035418 43 105 2.0 3.0 0.00 0.00 0.00 43 1023.5
20210418034644 43 105 2.0 3.0 0.00 0.00 0.00 42 1023.4
20210418034101 43 105 1.0 2.0 0.00 0.00 0.00 43 1023.4
20210418033617 44 105 0.0 0.0 0.00 0.00 0.00 40 1023.4
20210418033158 45 105 0.0 3.0 0.00 0.00 0.00 40 1023.3
20210418032928 45 105 1.0 3.0 0.00 0.00 0.00 39 1023.2
20210418032621 45 105 2.0 3.0 0.00 0.00 0.00 40 1023.1
20210418031727 46 105 2.0 3.0 0.00 0.00 0.00 38 1023.2
20210418031103 48 105 1.0 3.0 0.00 0.00 0.00 35 1023.1
20210418030602 48 105 1.0 3.0 0.00 0.00 0.00 34 1023.1
20210418030315 48 105 1.0 3.0 0.00 0.00 0.00 35 1023.0
20210418030021 47 105 2.0 4.0 0.00 0.00 0.00 38 1023.0
20210418025520 46 105 3.0 4.0 0.00 0.00 0.00 39 1023.0
20210418024708 46 86 0.0 1.0 0.00 0.00 0.00 39 1022.9
20210418024103 45 86 0.0 0.0 0.00 0.00 0.00 42 1022.9
20210418023609 46 86 0.0 1.0 0.00 0.00 0.00 42 1022.8
20210418023303 47 86 0.0 1.0 0.00 0.00 0.00 38 1022.8
20210418022814 49 86 0.0 1.0 0.00 0.00 0.00 35 1022.7
20210418022215 49 86 0.0 0.0 0.00 0.00 0.00 35 1022.7
20210418021653 50 86 0.0 2.0 0.00 0.00 0.00 33 1022.6
20210418021055 51 86 0.0 2.0 0.00 0.00 0.00 31 1022.6
20210418020556 52 86 1.0 3.0 0.00 0.00 0.00 31 1022.6
20210418020216 53 86 1.0 3.0 0.00 0.00 0.00 29 1022.6
20210418015901 53 86 0.0 1.0 0.00 0.00 0.00 30 1022.5
20210418015519 53 86 0.0 2.0 0.00 0.00 0.00 30 1022.6
20210418014638 54 86 0.0 3.0 0.00 0.00 0.00 28 1022.7
20210418014056 54 86 1.0 3.0 0.00 0.00 0.00 27 1022.6
20210418013608 55 86 1.0 3.0 0.00 0.00 0.00 28 1022.7
20210418013334 55 86 1.0 3.0 0.00 0.00 0.00 27 1022.7
20210418013038 56 86 1.0 3.0 0.00 0.00 0.00 28 1022.7
20210418012556 56 86 1.0 3.0 0.00 0.00 0.00 25 1022.7
20210418011751 56 86 0.0 3.0 0.00 0.00 0.00 25 1022.7
20210418011108 56 99 0.0 3.0 0.00 0.00 0.00 27 1022.7
20210418010557 56 99 0.0 4.0 0.00 0.00 0.00 29 1022.8
20210418010140 56 99 1.0 4.0 0.00 0.00 0.00 24 1023.0
20210418005841 56 96 0.0 4.0 0.00 0.00 0.00 24 1022.9
20210418005355 56 96 2.0 4.0 0.00 0.00 0.00 25 1022.9
20210418004650 57 96 1.0 3.0 0.00 0.00 0.00 23 1023.0
20210418004110 57 96 1.0 2.0 0.00 0.00 0.00 25 1022.9
20210418003548 57 96 0.0 6.0 0.00 0.00 0.00 28 1023.0
20210418003117 56 96 1.0 10.0 0.00 0.00 0.00 27 1023.1
20210418002826 56 93 5.0 10.0 0.00 0.00 0.00 25 1023.1
20210418002431 57 62 4.0 6.0 0.00 0.00 0.00 26 1023.0
20210418001705 57 103 2.0 7.0 0.00 0.00 0.00 27 1023.1
20210418000557 58 288 3.0 7.0 0.00 0.00 0.00 25 1023.1
20210418000157 58 311 2.0 9.0 0.00 0.00 0.00 27 1023.1
20210417235845 58 24 5.0 9.0 0.00 0.00 0.00 23 1023.2
20210417235520 57 17 3.0 10.0 0.00 0.00 0.00 24 1023.2
20210417234601 57 78 5.0 13.0 0.00 0.00 0.00 25 1023.2
20210417234048 57 46 6.0 16.0 0.00 0.00 0.00 25 1023.1
20210417233546 58 84 9.0 16.0 0.00 0.00 0.00 25 1023.1
20210417233127 57 53 5.0 9.0 0.00 0.00 0.00 28 1023.2
20210417232841 57 55 1.0 7.0 0.00 0.00 0.00 25 1023.2
20210417232240 57 168 1.0 7.0 0.00 0.00 0.00 26 1023.2
20210417231622 57 161 4.0 8.0 0.00 0.00 0.00 28 1023.2
20210417231100 57 98 1.0 9.0 0.00 0.00 0.00 27 1023.3
20210417230540 56 73 3.0 9.0 0.00 0.00 0.00 26 1023.3
20210417230137 57 65 4.0 10.0 0.00 0.00 0.00 26 1023.4
20210417225903 57 30 4.0 10.0 0.00 0.00 0.00 27 1023.4
20210417225350 57 65 3.0 9.0 0.00 0.00 0.00 30 1023.4
20210417224621 56 135 1.0 9.0 0.00 0.00 0.00 25 1023.5
20210417224053 56 69 0.0 9.0 0.00 0.00 0.00 25 1023.6
20210417223550 58 297 2.0 9.0 0.00 0.00 0.00 27 1023.7
20210417223108 56 326 1.0 7.0 0.00 0.00 0.00 26 1023.7
20210417222927 56 95 4.0 8.0 0.00 0.00 0.00 29 1023.7
20210417222550 55 72 2.0 8.0 0.00 0.00 0.00 27 1023.8
20210417221630 56 113 4.0 8.0 0.00 0.00 0.00 25 1023.8
20210417221046 56 97 3.0 7.0 0.00 0.00 0.00 28 1023.9
20210417220549 56 154 1.0 5.0 0.00 0.00 0.00 26 1024.0
20210417220055 57 145 2.0 7.0 0.00 0.00 0.00 31 1024.1
20210417215730 56 96 1.0 9.0 0.00 0.00 0.00 32 1024.1
20210417215141 56 84 4.0 9.0 0.00 0.00 0.00 27 1024.3
20210417214547 57 48 1.0 9.0 0.00 0.00 0.00 31 1024.4
20210417214050 56 28 3.0 10.0 0.00 0.00 0.00 28 1024.6
20210417213615 56 41 1.0 10.0 0.00 0.00 0.00 29 1024.6
20210417213105 55 360 4.0 13.0 0.00 0.00 0.00 29 1024.7
20210417212747 55 58 6.0 13.0 0.00 0.00 0.00 30 1024.8
20210417212121 55 80 4.0 11.0 0.00 0.00 0.00 29 1024.8
20210417211550 56 12 5.0 10.0 0.00 0.00 0.00 26 1024.9
20210417211053 55 55 5.0 23.0 0.00 0.00 0.00 28 1025.0
20210417210533 55 321 4.0 17.0 0.00 0.00 0.00 29 1025.0
20210417210046 55 67 6.0 17.0 0.00 0.00 0.00 26 1025.2
20210417205849 55 32 6.0 15.0 0.00 0.00 0.00 30 1025.3
20210417205333 55 49 7.0 14.0 0.00 0.00 0.00 29 1025.4
20210417204545 56 46 8.0 14.0 0.00 0.00 0.00 28 1025.5
20210417204106 55 42 9.0 14.0 0.00 0.00 0.00 30 1025.5
20210417203524 54 355 4.0 14.0 0.00 0.00 0.00 29 1025.5
20210417203120 54 23 7.0 13.0 0.00 0.00 0.00 34 1025.6
20210417202814 54 48 4.0 13.0 0.00 0.00 0.00 31 1025.6
20210417202230 54 53 5.0 12.0 0.00 0.00 0.00 28 1025.6
20210417201539 54 41 5.0 16.0 0.00 0.00 0.00 30 1025.7
20210417201025 54 355 10.0 16.0 0.00 0.00 0.00 28 1025.7
20210417200523 54 17 7.0 17.0 0.00 0.00 0.00 26 1025.9
20210417200039 53 24 3.0 15.0 0.00 0.00 0.00 28 1025.8
20210417195744 53 83 6.0 15.0 0.00 0.00 0.00 31 1025.8
20210417195242 52 69 4.0 15.0 0.00 0.00 0.00 30 1025.9
20210417194539 54 62 7.0 14.0 0.00 0.00 0.00 28 1026.0
20210417194028 53 36 8.0 14.0 0.00 0.00 0.00 33 1026.0
20210417193531 54 5 9.0 14.0 0.00 0.00 0.00 29 1026.1
20210417193107 53 30 6.0 15.0 0.00 0.00 0.00 29 1026.0
20210417192822 53 22 10.0 15.0 0.00 0.00 0.00 32 1026.1
20210417192146 52 48 8.0 12.0 0.00 0.00 0.00 31 1026.2
20210417191537 52 98 7.0 17.0 0.00 0.00 0.00 32 1026.2
20210417191109 53 45 9.0 25.0 0.00 0.00 0.00 30 1026.2
20210417190529 52 355 7.0 13.0 0.00 0.00 0.00 33 1026.2
20210417190041 51 51 3.0 11.0 0.00 0.00 0.00 34 1026.2
20210417185749 51 97 5.0 13.0 0.00 0.00 0.00 31 1026.4
20210417185301 51 49 9.0 13.0 0.00 0.00 0.00 31 1026.4
20210417184610 51 19 8.0 13.0 0.00 0.00 0.00 33 1026.5
20210417184030 51 360 6.0 11.0 0.00 0.00 0.00 35 1026.6
20210417183552 50 355 5.0 13.0 0.00 0.00 0.00 34 1026.6
20210417183050 51 18 8.0 13.0 0.00 0.00 0.00 35 1026.7
20210417182859 51 342 8.0 13.0 0.00 0.00 0.00 35 1026.7
20210417182418 51 21 3.0 10.0 0.00 0.00 0.00 33 1026.8
20210417181540 49 18 4.0 11.0 0.00 0.00 0.00 33 1026.9
20210417181025 49 54 6.0 13.0 0.00 0.00 0.00 37 1027.0
20210417180541 50 27 3.0 15.0 0.00 0.00 0.00 35 1027.0
20210417180057 50 17 9.0 15.0 0.00 0.00 0.00 35 1027.1
20210417175801 49 57 5.0 9.0 0.00 0.00 0.00 35 1027.1
20210417175329 51 43 4.0 11.0 0.00 0.00 0.00 36 1027.1